Location: Kitt Peak
(31.9633°N, 111.6000°W)
Time: 02:07:02
(UTC-07:00)

Amateur Radio Satellites - All Passes

Search period start: 25 May 2016 01:37
Search period end: 26 May 2016 01:37
Location: Kitt Peak, 31.9633°N, 111.6000°W

Satellite Date Start Highest point End Downlink Frequencies (MHz)
Time Altitude Azimuth
DANDE 25 May 01:53:33 01:54:21 10° 282° (WNW) 01:55:09 436.750
YUBILEINY 25 May 01:58:22 02:03:11 16° 68° (ENE) 02:07:59 435.215
SWISSCUBE 25 May 02:20:50 02:25:25 52° 259° (W) 02:30:04 437.505
ITUPSAT 1 25 May 02:25:18 02:29:55 53° 259° (W) 02:34:35 437.325
Gurwin Techsat 1B 25 May 02:26:54 02:32:12 72° 102° (ESE) 02:37:30 435.225
Oscar 19 25 May 02:28:39 02:33:28 41° 288° (WNW) 02:38:14 437.125/150
Cosmos 2491 25 May 02:46:09 02:52:04 20° 82° (E) 02:57:59 435.465 / 435.565
PHONESAT 2.4 25 May 02:48:05 02:50:38 22° 13° (NNE) 02:53:11 2401.200-2431.200
AO-7 25 May 02:50:51 02:56:33 20° 95° (E) 03:02:12 29.400- 29.500
BEESAT 25 May 02:51:41 02:55:38 26° 263° (W) 02:59:38 436.000
MOZHAYETS 4 25 May 02:52:12 02:55:40 22° 70° (ENE) 02:59:08
KKS-1 25 May 02:57:41 03:01:46 36° 73° (ENE) 03:05:53 437.445
ITAMSAT 1 25 May 03:03:17 03:08:27 61° 102° (ESE) 03:13:36 435.822/435.867
JAS-2 25 May 03:07:47 03:11:48 16° 301° (WNW) 03:15:39 435.910
STARS 25 May 03:41:10 03:45:30 58° 74° (ENE) 03:49:50 437.465
RS-15 25 May 03:42:42 03:54:57 72° 247° (WSW) 04:07:00 29.354- 29.394
YUBILEINY 25 May 03:52:09 04:00:56 86° 266° (W) 04:09:44 435.215
Gurwin Techsat 1B 25 May 04:09:47 04:11:29 11° 296° (WNW) 04:13:10 435.225
CUBESAT XI-V 25 May 04:10:09 04:13:01 16° 68° (ENE) 04:15:54 437.345
ISS 25 May 04:16:56 04:18:37 13° 32° (NNE) 04:20:19 145.825
HORYU 2 25 May 04:20:48 04:24:02 20° 96° (E) 04:27:17 437.375
PHONESAT 2.4 25 May 04:24:31 04:27:38 84° 205° (SSW) 04:30:44 2401.200-2431.200
MOZHAYETS 4 25 May 04:28:47 04:32:38 27° 263° (W) 04:36:30
KKS-1 25 May 04:35:44 04:38:24 16° 265° (W) 04:41:04 437.445
Cosmos 2491 25 May 04:39:12 04:47:59 69° 278° (W) 04:56:48 435.465 / 435.565
AO-7 25 May 04:41:28 04:49:48 72° 289° (WNW) 04:58:06 29.400- 29.500
ITAMSAT 1 25 May 04:44:54 04:47:21 13° 295° (WNW) 04:49:48 435.822/435.867
Cosmos 2504 25 May 04:47:30 04:55:55 64° 82° (E) 05:04:40 435.465 / 435.565
NOAA 15 25 May 05:17:11 05:20:04 15° 94° (E) 05:22:54 137.62
CUBESAT XI-V 25 May 05:45:42 05:50:02 39° 262° (W) 05:54:24 437.345
ISS 25 May 05:52:07 05:55:18 54° 228° (SW) 05:58:28 145.825
JUGNU 25 May 05:52:47 05:55:57 15° 164° (SSE) 05:59:08 437.505
YUBILEINY 25 May 05:53:15 05:56:21 12° 281° (WNW) 05:59:27 435.215
STRAND 1 25 May 05:56:34 06:00:02 19° 67° (ENE) 06:03:31 437.568
HORYU 2 25 May 05:56:46 06:00:32 28° 289° (WNW) 06:04:19 437.375
CUTE-I 25 May 05:57:22 06:01:49 26° 97° (E) 06:06:16 437.470
RS-15 25 May 06:01:23 06:05:15 12° 264° (W) 06:09:06 29.354- 29.394
AO-85 25 May 06:09:22 06:14:49 85° 117° (ESE) 06:20:15 145.980
NOAA 18 25 May 06:24:49 06:30:15 62° 102° (ESE) 06:35:41 137.9125
AO-7 25 May 06:38:03 06:41:05 12° 307° (NW) 06:44:08 29.400- 29.500
BRITE-PL 25 May 06:42:06 06:47:14 87° 279° (W) 06:51:55 437.365/2234.400
Cosmos 2504 25 May 06:42:26 06:48:35 23° 276° (W) 06:54:56 435.465 / 435.565
DOVE 4 25 May 06:47:34 06:50:25 17° 94° (E) 06:53:12 437.250
Cubesat XI-IV 25 May 06:49:20 06:54:43 90° 101° (E) 07:00:05 437.490
NOAA 15 25 May 06:54:55 07:00:04 52° 287° (WNW) 07:05:10 137.62
LilacSat-2 25 May 06:56:40 07:00:23 57° 284° (WNW) 07:04:05 437.200
PRISM 25 May 07:04:19 07:06:13 13° 67° (ENE) 07:08:07 437.425
HO-68 25 May 07:09:30 07:13:20 15° 93° (E) 07:17:10 435.675
GOMX 1 25 May 07:21:12 07:25:51 72° 285° (WNW) 07:30:12 467.674
STRAND 1 25 May 07:34:06 07:38:52 40° 261° (W) 07:43:39 437.568
CUTE-I 25 May 07:37:09 07:41:46 31° 290° (WNW) 07:46:24 437.470
CINEMA 3 25 May 07:38:15 07:41:04 18° 95° (E) 07:43:51 145.822/145.860
JUGNU 25 May 07:39:44 07:44:23 23° 174° (S) 07:49:01 437.505
AIST 1 25 May 07:40:27 07:43:12 16° 76° (ENE) 07:45:56
SRMSAT 25 May 07:41:46 07:44:03 12° 163° (SSE) 07:46:20 437.500
AUBIESAT-1 25 May 07:46:14 07:48:35 18° 101° (ESE) 07:50:56 437.475
GONETS M04 25 May 07:47:21 07:53:03 19° 70° (ENE) 07:58:43
COMPASS 1 25 May 07:48:50 07:49:38 10° 93° (E) 07:50:26 437.405
M-CUBED/EXP-1 PRIME 25 May 07:50:04 07:52:52 26° 103° (ESE) 07:55:40 437.505
AO-85 25 May 07:53:20 07:55:55 13° 312° (NW) 07:58:30 145.980
NOAA 18 25 May 08:07:31 08:10:19 14° 296° (WNW) 08:13:06 137.9125
CANX-2 25 May 08:21:46 08:26:04 74° 102° (ESE) 08:30:20 2200.000
DOVE 4 25 May 08:24:24 08:28:09 28° 289° (WNW) 08:31:46 437.250
SEEDS 25 May 08:30:04 08:34:14 55° 100° (E) 08:38:24 437.485
PRISM 25 May 08:37:16 08:41:07 39° 261° (W) 08:45:01 437.425
Oscar 11 25 May 08:43:57 08:46:36 16° 94° (E) 08:49:12 145.826/435.025
CUBEBUG 2 25 May 08:45:14 08:49:01 32° 99° (E) 08:52:48 437.445
CUTE 1.7 + AOD 2 25 May 08:49:38 08:53:50 56° 284° (WNW) 08:58:01 437.475
ZACube-1 25 May 08:52:34 08:55:19 17° 95° (E) 08:58:05 437.345
HO-68 25 May 08:54:23 09:01:33 76° 287° (WNW) 09:08:43 435.675
TIGRISAT 25 May 08:59:35 09:01:02 12° 68° (ENE) 09:02:31 435.000
CINEMA 3 25 May 09:14:43 09:18:11 26° 288° (WNW) 09:21:38 145.822/145.860
AIST 1 25 May 09:17:01 09:20:48 29° 270° (W) 09:24:32
UWE-3 25 May 09:19:15 09:23:22 60° 100° (E) 09:27:33 435.000/436.395/437.385
AUBIESAT-1 25 May 09:20:54 09:22:58 16° 294° (WNW) 09:25:01 437.475
COMPASS 1 25 May 09:21:19 09:25:22 46° 285° (WNW) 09:29:23 437.405
SO-50 25 May 09:21:21 09:25:09 24° 54° (NE) 09:28:51 436.795
M-CUBED/EXP-1 PRIME 25 May 09:26:24 09:27:10 11° 296° (WNW) 09:27:57 437.505
AAUSAT CUBESAT 2 25 May 09:26:30 09:30:34 51° 285° (WNW) 09:34:38 437.432
PCSat 25 May 09:28:02 09:33:17 54° 111° (ESE) 09:38:34 145.827
JUGNU 25 May 09:28:06 09:32:51 25° 184° (S) 09:37:35 437.505
SRMSAT 25 May 09:28:09 09:32:36 22° 171° (S) 09:37:01 437.500
ANTELSAT 25 May 09:29:50 09:33:38 29° 72° (ENE) 09:37:22 437.575/2403.000
Cosmos 2499 25 May 09:30:08 09:38:39 59° 81° (E) 09:47:22 435.465 / 435.565
FUNcube-1 25 May 09:31:01 09:35:04 49° 100° (E) 09:39:11 145.935
O/OREOS (USA 219) 25 May 09:40:13 09:44:47 84° 288° (WNW) 09:49:22 437.305
GONETS M04 25 May 09:41:56 09:50:36 74° 267° (W) 09:59:13
DUCHIFAT 1 25 May 10:08:50 10:10:00 11° 67° (ENE) 10:11:10 145.980
CUSAT 1 25 May 10:18:00 10:18:38 10° 77° (ENE) 10:19:17 437.405
DELFI C3 25 May 10:18:22 10:22:23 74° 283° (WNW) 10:26:24 145.870
Oscar 11 25 May 10:18:51 10:22:45 33° 287° (WNW) 10:26:39 145.826/435.025
CUBEBUG 2 25 May 10:22:57 10:25:20 15° 291° (WNW) 10:27:44 437.445
UNISAT 6 25 May 10:24:26 10:28:49 58° 259° (W) 10:33:06 437.425
ZACube-1 25 May 10:27:58 10:31:35 29° 287° (WNW) 10:35:15 437.345
TIGRISAT 25 May 10:33:01 10:37:18 49° 260° (W) 10:41:31 435.000
BUGSAT 1 25 May 10:37:57 10:39:07 11° 67° (ENE) 10:40:17 437.445
POPSAT HIP 1 25 May 10:41:04 10:44:49 31° 73° (ENE) 10:48:33 437.405
QB50P1 25 May 10:41:41 10:45:29 32° 73° (ENE) 10:49:15 145.935-145.965
QB50P2 25 May 10:42:57 10:46:50 35° 73° (ENE) 10:50:42 145.880/145.840
POLYITAN 1 25 May 10:45:22 10:49:16 36° 73° (ENE) 10:53:09 437.675
HO-68 25 May 10:46:13 10:48:05 11° 303° (WNW) 10:49:56 435.675
HUMSAT D 25 May 10:58:27 11:02:32 57° 284° (WNW) 11:06:39 437.325/437.525
NANOSAT C BR1 25 May 11:01:14 11:05:22 54° 75° (ENE) 11:09:30 145.865
SO-50 25 May 11:01:37 11:05:33 28° 249° (WSW) 11:09:23 436.795
BEESAT 3 25 May 11:06:51 11:10:29 37° 113° (ESE) 11:14:08 437.485
AISAT 25 May 11:06:53 11:09:41 16° 95° (E) 11:12:27 437.250
ANTELSAT 25 May 11:07:12 11:10:18 19° 264° (W) 11:13:22 437.575/2403.000
FUNcube-1 25 May 11:10:01 11:10:52 11° 292° (WNW) 11:11:43 145.935
PCSat 25 May 11:13:25 11:16:59 18° 307° (NW) 11:20:35 145.827
SRMSAT 25 May 11:16:27 11:21:13 25° 182° (S) 11:25:57 437.500
JUGNU 25 May 11:17:33 11:21:16 17° 194° (SSW) 11:24:58 437.505
Cosmos 2499 25 May 11:24:30 11:31:08 25° 276° (W) 11:37:55 435.465 / 435.565
JAS-2 25 May 11:26:54 11:32:28 25° 64° (ENE) 11:38:23 435.910
DANDE 25 May 11:27:03 11:30:26 19° 82° (E) 11:34:27 436.750
UKube-1 25 May 11:28:43 11:31:44 18° 96° (E) 11:34:43 .
ESTCUBE 1 25 May 11:33:12 11:37:38 52° 100° (E) 11:42:03 437.505/2401.250
50 SAT 25 May 11:35:54 11:39:26 40° 99° (E) 11:42:57 437.505
DUCHIFAT 1 25 May 11:41:09 11:45:13 48° 260° (W) 11:49:19 145.980
CUSAT 1 25 May 11:53:32 11:59:07 89° 278° (W) 12:06:21 437.405
Oscar 19 25 May 12:03:09 12:06:25 17° 67° (ENE) 12:09:43 437.125/150
BEESAT 2 25 May 12:04:16 12:08:13 75° 298° (WNW) 12:12:12 435.950
CUBEBUG 1 25 May 12:05:56 12:10:19 88° 108° (ESE) 12:14:39 437.445
VELOX 1 25 May 12:06:04 12:10:31 85° 105° (ESE) 12:14:54 145.980
DX 1 25 May 12:09:31 12:13:53 77° 103° (ESE) 12:18:12 434.975-435.025
BUGSAT 1 25 May 12:09:56 12:14:01 48° 260° (W) 12:18:06 437.445
POPSAT HIP 1 25 May 12:17:57 12:20:36 16° 265° (W) 12:23:16 437.405
QB50P1 25 May 12:18:42 12:21:16 16° 265° (W) 12:23:50 145.935-145.965
QB50P2 25 May 12:20:25 12:22:41 14° 266° (W) 12:24:58 145.880/145.840
POLYITAN 1 25 May 12:22:57 12:25:08 14° 266° (W) 12:27:20 437.675
AISAT 25 May 12:42:14 12:46:11 33° 288° (WNW) 12:50:06 437.250
SPROUT 25 May 12:44:29 12:48:46 88° 277° (W) 12:53:00 437.525
BEESAT 3 25 May 12:46:07 12:48:17 14° 308° (NW) 12:50:29 437.485
UKube-1 25 May 13:04:01 13:07:44 28° 289° (WNW) 13:11:25 .
SRMSAT 25 May 13:05:45 13:09:47 19° 192° (SSW) 13:13:50 437.500
DANDE 25 May 13:08:00 13:12:32 40° 286° (WNW) 13:18:29 436.750
JAS-2 25 May 13:09:57 13:16:47 57° 261° (W) 13:24:21 435.910
ESTCUBE 1 25 May 13:12:17 13:13:55 12° 294° (WNW) 13:15:33 437.505/2401.250
TISAT 1 25 May 13:18:00 13:22:05 55° 100° (E) 13:26:09 437.305
Oscar 19 25 May 13:40:20 13:45:18 47° 260° (W) 13:50:19 437.125/150
CUSAT 1 25 May 13:40:24 13:42:36 12° 298° (WNW) 13:44:57 437.405
Gurwin Techsat 1B 25 May 13:43:01 13:48:17 71° 75° (ENE) 13:53:35 435.225
AO-7 25 May 13:45:43 13:51:05 19° 57° (ENE) 13:56:26 29.400- 29.500
AIST 2 25 May 13:53:09 13:57:16 86° 293° (WNW) 14:01:25 435.215
ITAMSAT 1 25 May 14:16:24 14:21:26 56° 74° (ENE) 14:26:30 435.822/435.867
SWISSCUBE 25 May 14:25:40 14:30:24 59° 101° (E) 14:35:07 437.505
ITUPSAT 1 25 May 14:30:29 14:35:13 58° 101° (E) 14:39:57 437.325
AO-85 25 May 14:47:43 14:50:58 19° 51° (NE) 14:54:01 145.980
YUBILEINY 25 May 14:53:18 14:59:21 21° 83° (E) 15:05:22 435.215
BEESAT 25 May 14:55:40 15:00:26 71° 285° (WNW) 15:05:11 436.000
Cosmos 2491 25 May 14:55:55 15:04:20 49° 79° (E) 15:12:39 435.465 / 435.565
HORYU 2 25 May 15:16:39 15:17:31 10° 66° (ENE) 15:18:22 437.375
Gurwin Techsat 1B 25 May 15:27:49 15:28:38 10° 268° (W) 15:29:26 435.225
AO-7 25 May 15:34:35 15:42:52 81° 254° (WSW) 15:51:13 29.400- 29.500
STARS 25 May 15:36:49 15:39:23 15° 95° (E) 15:41:55 437.465
RS-15 25 May 15:49:49 15:58:38 28° 103° (ESE) 16:07:43 29.354- 29.394
ITAMSAT 1 25 May 15:58:51 16:01:10 13° 267° (W) 16:03:31 435.822/435.867
SWISSCUBE 25 May 16:05:55 16:07:39 12° 295° (WNW) 16:09:22 437.505
ITUPSAT 1 25 May 16:10:41 16:12:30 12° 295° (WNW) 16:14:19 437.325
AO-85 25 May 16:27:32 16:31:31 33° 249° (WSW) 16:35:12 145.980
MOZHAYETS 4 25 May 16:27:41 16:32:19 81° 282° (WNW) 16:36:57
KKS-1 25 May 16:29:31 16:33:50 54° 285° (WNW) 16:38:07 437.445
NOAA 15 25 May 16:32:49 16:35:52 16° 65° (ENE) 16:38:56 137.62
YUBILEINY 25 May 16:46:42 16:55:17 64° 278° (W) 17:03:55 435.215
HORYU 2 25 May 16:49:12 16:53:32 56° 259° (WSW) 16:57:53 437.375
Cosmos 2491 25 May 16:53:31 17:00:40 29° 275° (W) 17:07:48 435.465 / 435.565
STARS 25 May 17:11:49 17:15:47 35° 288° (WNW) 17:19:43 437.465
CUTE-I 25 May 17:14:37 17:19:02 27° 69° (ENE) 17:23:26 437.470
Cosmos 2504 25 May 17:20:40 17:27:37 57° 91° (E) 17:34:49 435.465 / 435.565
LilacSat-2 25 May 17:33:59 17:37:22 31° 74° (ENE) 17:40:44 437.200
AO-7 25 May 17:34:24 17:36:33 11° 268° (W) 17:38:42 29.400- 29.500
NOAA 18 25 May 17:46:16 17:51:43 74° 74° (ENE) 17:57:09 137.9125
BRITE-PL 25 May 17:46:20 17:51:47 65° 75° (ENE) 17:57:26 437.365/2234.400
CUBESAT XI-V 25 May 17:46:42 17:51:26 76° 102° (ESE) 17:56:06 437.345
DOVE 4 25 May 17:48:23 17:51:06 14° 67° (ENE) 17:53:48 437.250
RS-15 25 May 17:58:47 18:09:55 68° 301° (WNW) 18:21:46 29.354- 29.394
Cubesat XI-IV 25 May 18:06:25 18:11:45 89° 265° (W) 18:17:05 437.490
NOAA 15 25 May 18:09:58 18:15:07 53° 259° (W) 18:20:20 137.62
PCSat 25 May 18:22:00 18:25:28 17° 53° (NE) 18:28:55 145.827
GOMX 1 25 May 18:22:41 18:28:08 71° 77° (ENE) 18:33:35 467.674
AUBIESAT-1 25 May 18:28:18 18:30:41 15° 66° (ENE) 18:32:58 437.475
M-CUBED/EXP-1 PRIME 25 May 18:32:03 18:35:18 21° 68° (ENE) 18:38:23 437.505
CINEMA 3 25 May 18:36:32 18:38:12 12° 68° (ENE) 18:39:51 145.822/145.860
CUTE-I 25 May 18:54:21 18:58:55 29° 263° (W) 19:03:30 437.470
LilacSat-2 25 May 19:10:01 19:11:42 13° 266° (W) 19:13:23 437.200
CANX-2 25 May 19:10:07 19:13:39 27° 72° (ENE) 19:17:12 2200.000
Cosmos 2504 25 May 19:16:27 19:21:25 20° 289° (WNW) 19:26:33 435.465 / 435.565
HO-68 25 May 19:17:24 19:24:13 49° 69° (ENE) 19:31:01 435.675
SEEDS 25 May 19:17:48 19:20:52 20° 71° (ENE) 19:23:56 437.485
DOVE 4 25 May 19:23:05 19:28:17 58° 260° (W) 19:33:23 437.250
BRITE-PL 25 May 19:27:58 19:30:36 13° 269° (W) 19:33:18 437.365/2234.400
NOAA 18 25 May 19:32:02 19:32:46 10° 268° (W) 19:33:31 137.9125
CUTE 1.7 + AOD 2 25 May 19:37:12 19:41:16 51° 75° (ENE) 19:45:21 437.475
CUBEBUG 2 25 May 19:39:35 19:42:24 17° 70° (ENE) 19:45:10 437.445
STRAND 1 25 May 19:49:04 19:54:13 81° 284° (WNW) 19:59:22 437.568
O/OREOS (USA 219) 25 May 19:55:08 19:59:37 82° 70° (ENE) 20:04:05 437.305
AUBIESAT-1 25 May 20:00:55 20:04:54 36° 256° (WSW) 20:08:40 437.475
PCSat 25 May 20:03:54 20:09:13 57° 248° (WSW) 20:14:29 145.827
GOMX 1 25 May 20:04:46 20:06:33 11° 269° (W) 20:08:20 467.674
AIST 1 25 May 20:05:49 20:07:34 12° 86° (E) 20:09:20
M-CUBED/EXP-1 PRIME 25 May 20:05:59 20:09:40 26° 257° (WSW) 20:13:10 437.505
COMPASS 1 25 May 20:06:50 20:10:52 58° 76° (ENE) 20:14:57 437.405
CINEMA 3 25 May 20:10:04 20:14:51 58° 260° (W) 20:19:28 145.822/145.860
AAUSAT CUBESAT 2 25 May 20:11:35 20:15:34 51° 75° (ENE) 20:19:34 437.432
UWE-3 25 May 20:11:50 20:15:29 26° 72° (ENE) 20:19:03 435.000/436.395/437.385
RS-15 25 May 20:17:40 20:25:11 19° 327° (NNW) 20:32:59 29.354- 29.394
FUNcube-1 25 May 20:22:32 20:25:43 21° 71° (ENE) 20:28:53 145.935
PRISM 25 May 20:23:30 20:27:24 38° 99° (E) 20:31:16 437.425
BEESAT 2 25 May 20:28:09 20:30:24 14° 52° (NE) 20:32:38 435.950
GONETS M04 25 May 20:42:05 20:48:57 26° 84° (E) 20:55:45
CANX-2 25 May 20:46:34 20:49:28 18° 265° (W) 20:52:23 2200.000
ISS 25 May 20:51:46 20:54:53 43° 131° (SE) 20:57:59 145.825
SEEDS 25 May 20:53:01 20:56:24 24° 264° (W) 20:59:48 437.485
PHONESAT 2.4 25 May 20:55:17 20:57:20 16° 142° (SE) 20:59:23 2401.200-2431.200
DELFI C3 25 May 20:59:44 21:03:11 30° 73° (ENE) 21:06:40 145.870
BEESAT 3 25 May 21:05:45 21:09:42 73° 62° (ENE) 21:13:36 437.485
HO-68 25 May 21:06:24 21:12:03 25° 264° (W) 21:17:44 435.675
Oscar 11 25 May 21:08:00 21:12:18 84° 261° (W) 21:16:37 145.826/435.025
CUBEBUG 2 25 May 21:14:42 21:18:45 33° 262° (W) 21:22:42 437.445
ZACube-1 25 May 21:18:09 21:22:26 71° 259° (WSW) 21:26:40 437.345
AIST 1 25 May 21:40:36 21:44:43 40° 280° (W) 21:48:53
HUMSAT D 25 May 21:44:47 21:48:42 47° 75° (ENE) 21:52:37 437.325/437.525
UWE-3 25 May 21:48:40 21:51:52 20° 264° (W) 21:55:01 435.000/436.395/437.385
FUNcube-1 25 May 21:58:20 22:01:47 24° 263° (W) 22:05:14 145.935
PRISM 25 May 22:00:19 22:02:20 13° 292° (WNW) 22:04:20 437.425
Cosmos 2499 25 May 22:01:29 22:08:17 50° 90° (E) 22:15:27 435.465 / 435.565
BEESAT 2 25 May 22:04:40 22:08:22 38° 247° (WSW) 22:12:02 435.950
DANDE 25 May 22:09:56 22:15:44 20° 68° (ENE) 22:21:10 436.750
AIST 2 25 May 22:20:18 22:22:44 15° 52° (NE) 22:25:09 435.215
UNISAT 6 25 May 22:20:54 22:24:57 39° 99° (E) 22:29:01 437.425
ESTCUBE 1 25 May 22:28:16 22:32:02 27° 71° (ENE) 22:35:49 437.505/2401.250
TIGRISAT 25 May 22:29:05 22:33:13 46° 100° (E) 22:37:25 435.000
ISS 25 May 22:29:26 22:31:28 15° 326° (NW) 22:33:29 145.825
PHONESAT 2.4 25 May 22:30:44 22:33:50 62° 335° (NNW) 22:36:57 2401.200-2431.200
CUSAT 1 25 May 22:34:17 22:41:48 55° 77° (ENE) 22:47:58 437.405
DELFI C3 25 May 22:35:57 22:38:05 14° 266° (W) 22:40:13 145.870
GONETS M04 25 May 22:36:33 22:45:07 55° 280° (W) 22:53:42
NANOSAT C BR1 25 May 22:52:25 22:54:13 12° 94° (E) 22:55:59 145.865
CUBEBUG 1 25 May 22:56:55 23:01:02 38° 73° (ENE) 23:05:08 437.445
VELOX 1 25 May 22:58:28 23:02:37 39° 73° (ENE) 23:06:47 145.980
DX 1 25 May 23:00:15 23:04:13 34° 72° (ENE) 23:08:12 434.975-435.025
ANTELSAT 25 May 23:02:01 23:06:17 63° 283° (WNW) 23:10:36 437.575/2403.000
DUCHIFAT 1 25 May 23:30:10 23:34:01 35° 99° (E) 23:37:51 145.980
SO-50 25 May 23:30:38 23:34:34 25° 110° (ESE) 23:38:32 436.795
SPROUT 25 May 23:33:14 23:37:10 36° 73° (ENE) 23:41:06 437.525
AISAT 25 May 23:33:56 23:38:24 71° 258° (WSW) 23:42:52 437.250
50 SAT 25 May 23:42:49 23:46:13 40° 261° (W) 23:49:40 437.505
DANDE 25 May 23:50:59 23:59:26 76° 265° (W) 00:06:49 436.750
UKube-1 25 May 23:52:52 23:57:09 65° 258° (WSW) 00:01:28 .
Cosmos 2499 25 May 23:56:13 00:01:41 23° 288° (WNW) 00:07:25 435.465 / 435.565
BUGSAT 1 25 May 23:56:49 00:00:27 32° 98° (E) 00:04:02 437.445
AIST 2 25 May 23:57:29 00:01:22 40° 247° (WSW) 00:05:13 435.215
UNISAT 6 25 May 23:59:05 00:01:18 14° 292° (WNW) 00:03:31 437.425
ESTCUBE 1 26 May 00:05:19 00:08:45 22° 264° (W) 00:12:13 437.505/2401.250
TISAT 1 26 May 00:05:27 00:08:42 22° 71° (ENE) 00:11:57 437.305
POPSAT HIP 1 26 May 00:05:44 00:09:55 69° 284° (WNW) 00:14:04 437.405
QB50P1 26 May 00:06:21 00:10:31 66° 284° (WNW) 00:14:39 145.935-145.965
TIGRISAT 26 May 00:07:56 00:09:29 12° 292° (WNW) 00:11:02 435.000
QB50P2 26 May 00:07:58 00:12:06 59° 284° (WNW) 00:16:14 145.880/145.840
PHONESAT 2.4 26 May 00:08:36 00:10:57 19° 350° (N) 00:13:20 2401.200-2431.200
POLYITAN 1 26 May 00:10:25 00:14:32 57° 284° (WNW) 00:18:39 437.675
CUSAT 1 26 May 00:17:40 00:23:06 22° 277° (W) 00:27:52 437.405
NANOSAT C BR1 26 May 00:26:10 00:30:03 38° 286° (WNW) 00:33:56 145.865
JAS-2 26 May 00:26:24 00:32:41 31° 94° (E) 00:38:21 435.910
CUBEBUG 1 26 May 00:35:00 00:37:24 14° 266° (W) 00:39:48 437.445
VELOX 1 26 May 00:36:49 00:39:11 14° 266° (W) 00:41:33 145.980
DX 1 26 May 00:37:49 00:40:27 16° 265° (W) 00:43:06 434.975-435.025
RS-15 26 May 00:55:00 01:04:44 26° 41° (NE) 01:14:24 29.354- 29.394
DUCHIFAT 1 26 May 01:07:10 01:09:22 14° 292° (WNW) 01:11:32 145.980
SO-50 26 May 01:10:31 01:14:52 32° 304° (NW) 01:19:16 436.795
SPROUT 26 May 01:10:50 01:13:11 14° 266° (W) 01:15:32 437.525
SWISSCUBE 26 May 01:27:26 01:31:48 38° 72° (ENE) 01:36:11 437.505
